QPF
0.00 0.00 0.00 0.00 0.00 0.00 0.01 0.03 0.03 0.02 0.02 0.02 0.02 0.04 0.03 0.02 0.03 0.04 0.04 0.04 0.06 0.06 0.05 0.06 0.06 0.06 0.04 0.04 0.05 0.05 0.05 0.06 0.05 0.03 0.04 0.03 0.02 0.03 0.03 0.02 0.04 0.05 0.06
0.00 0.00 0.00 0.00 0.00 0.00 0.00 0.00 0.00 0.01 0.01 0.01 0.02 0.02 0.02 0.01 0.02 0.03 0.03 0.04 0.06 0.08 0.07 0.08 0.08 0.06 0.05 0.05 0.04 0.04 0.05 0.05 0.05 0.04 0.04 0.02 0.02 0.02 0.02 0.03 0.03 0.04 0.04
0.01 0.01 0.00 0.00 0.00 0.00 0.00 0.00 0.00 0.01 0.01 0.01 0.02 0.02 0.01 0.01 0.02 0.01 0.02 0.05 0.05 0.08 0.09 0.09 0.10 0.08 0.06 0.05 0.03 0.04 0.04 0.05 0.05 0.03 0.02 0.01 0.02 0.03 0.02 0.01 0.02 0.03 0.02
0.00 0.00 0.00 0.00 0.00 0.00 0.00 0.00 0.00 0.01 0.01 0.01 0.01 0.01 0.01 0.01 0.01 0.00 0.01 0.03 0.04 0.06 0.07 0.07 0.08 0.09 0.07 0.05 0.04 0.04 0.03 0.04 0.04 0.03 0.02 0.03 0.02 0.02 0.02 0.01 0.01 0.01 0.01
0.00 0.00 0.00 0.00 0.00 0.00 0.00 0.01 0.01 0.01 0.01 0.01 0.01 0.01 0.01 0.01 0.01 0.01 0.02 0.02 0.03 0.05 0.06 0.07 0.08 0.10 0.09 0.07 0.04 0.03 0.02 0.03 0.04 0.04 0.03 0.04 0.04 0.03 0.03 0.02 0.01 0.01 0.01
0.00 0.00 0.00 0.01 0.00 0.00 0.00 0.01 0.01 0.01 0.01 0.01 0.01 0.01 0.01 0.01 0.01 0.01 0.01 0.01 0.02 0.02 0.04 0.06 0.08 0.08 0.09 0.07 0.05 0.04 0.02 0.02 0.03 0.04 0.04 0.04 0.05 0.04 0.04 0.02 0.01 0.02 0.03
0.00 0.00 0.01 0.02 0.01 0.01 0.01 0.01 0.01 0.01 0.01 0.01 0.01 0.01 0.01 0.01 0.01 0.02 0.02 0.01 0.01 0.01 0.02 0.04 0.07 0.07 0.06 0.06 0.05 0.04 0.03 0.03 0.04 0.05 0.05 0.06 0.06 0.06 0.04 0.04 0.03 0.03 0.03
0.01 0.01 0.03 0.03 0.03 0.01 0.01 0.01 0.01 0.01 0.01 0.01 0.01 0.01 0.01 0.02 0.02 0.02 0.02 0.02 0.01 0.01 0.01 0.02 0.05 0.06 0.05 0.05 0.04 0.04 0.05 0.07 0.05 0.04 0.04 0.05 0.06 0.07 0.05 0.05 0.05 0.05 0.03
0.01 0.01 0.04 0.06 0.06 0.03 0.02 0.01 0.01 0.01 0.01 0.02 0.01 0.01 0.02 0.02 0.02 0.03 0.03 0.02 0.02 0.02 0.02 0.03 0.03 0.04 0.05 0.06 0.06 0.05 0.06 0.07 0.06 0.05 0.04 0.04 0.05 0.05 0.05 0.04 0.04 0.05 0.03
0.00 0.01 0.02 0.04 0.05 0.06 0.04 0.02 0.02 0.02 0.03 0.03 0.02 0.02 0.02 0.02 0.02 0.03 0.02 0.02 0.02 0.02 0.02 0.03 0.03 0.04 0.05 0.05 0.04 0.04 0.04 0.04 0.05 0.07 0.07 0.05 0.05 0.05 0.04 0.03 0.03 0.04 0.03
0.00 0.02 0.03 0.04 0.04 0.03 0.04 0.03 0.03 0.03 0.04 0.04 0.03 0.03 0.02 0.02 0.02 0.02 0.03 0.02 0.03 0.02 0.02 0.03 0.03 0.04 0.04 0.04 0.04 0.05 0.05 0.05 0.05 0.06 0.05 0.05 0.06 0.06 0.04 0.03 0.02 0.03 0.02
0.01 0.02 0.03 0.03 0.03 0.04 0.05 0.03 0.04 0.06 0.07 0.06 0.05 0.04 0.05 0.05 0.04 0.04 0.06 0.06 0.06 0.07 0.08 0.08 0.06 0.06 0.08 0.09 0.08 0.06 0.05 0.04 0.03 0.02 0.03 0.03 0.04 0.05 0.04 0.03 0.02 0.03 0.03
0.02 0.02 0.02 0.03 0.03 0.03 0.04 0.07 0.09 0.10 0.09 0.08 0.05 0.06 0.07 0.07 0.06 0.05 0.05 0.07 0.08 0.09 0.09 0.07 0.06 0.07 0.07 0.05 0.04 0.04 0.03 0.03 0.02 0.03 0.02 0.02 0.03 0.03 0.02 0.02 0.02 0.02 0.02
0.02 0.03 0.05 0.06 0.06 0.06 0.09 0.13 0.16 0.12 0.09 0.07 0.06 0.08 0.08 0.07 0.07 0.06 0.06 0.06 0.06 0.05 0.04 0.04 0.03 0.03 0.03 0.03 0.03 0.03 0.03 0.02 0.02 0.01 0.01 0.01 0.02 0.02 0.02 0.02 0.02 0.02 0.02
0.06 0.07 0.07 0.07 0.06 0.07 0.08 0.08 0.08 0.08 0.08 0.08 0.08 0.09 0.08 0.08 0.08 0.08 0.09 0.10 0.09 0.06 0.04 0.04 0.04 0.03 0.03 0.03 0.05 0.05 0.04 0.04 0.03 0.03 0.02 0.01 0.01 0.02 0.02 0.02 0.03 0.04 0.03
0.08 0.07 0.06 0.06 0.07 0.07 0.06 0.08 0.12 0.11 0.10 0.10 0.12 0.11 0.10 0.09 0.08 0.09 0.10 0.11 0.11 0.08 0.06 0.05 0.04 0.03 0.03 0.03 0.04 0.05 0.04 0.04 0.04 0.03 0.03 0.02 0.01 0.02 0.02 0.03 0.04 0.04 0.03
0.04 0.05 0.06 0.07 0.07 0.08 0.07 0.07 0.13 0.17 0.14 0.15 0.14 0.11 0.10 0.09 0.09 0.10 0.11 0.14 0.17 0.15 0.10 0.08 0.06 0.04 0.03 0.04 0.04 0.05 0.05 0.04 0.03 0.03 0.03 0.02 0.02 0.02 0.02 0.02 0.03 0.03 0.03
0.03 0.04 0.04 0.04 0.07 0.08 0.08 0.09 0.11 0.13 0.13 0.16 0.22 0.17 0.12 0.09 0.09 0.11 0.12 0.13 0.17 0.20 0.19 0.14 0.09 0.05 0.03 0.04 0.04 0.05 0.06 0.04 0.04 0.04 0.04 0.03 0.03 0.03 0.03 0.02 0.02 0.02 0.03
0.05 0.04 0.05 0.05 0.07 0.10 0.11 0.12 0.11 0.08 0.07 0.10 0.15 0.14 0.13 0.14 0.12 0.09 0.11 0.15 0.17 0.17 0.15 0.11 0.07 0.05 0.03 0.05 0.07 0.08 0.07 0.05 0.05 0.06 0.06 0.05 0.04 0.05 0.04 0.03 0.02 0.02 0.02
0.06 0.05 0.05 0.06 0.09 0.13 0.11 0.08 0.06 0.06 0.08 0.10 0.11 0.11 0.11 0.12 0.14 0.10 0.09 0.10 0.09 0.08 0.07 0.06 0.05 0.04 0.04 0.07 0.09 0.10 0.08 0.07 0.07 0.07 0.06 0.06 0.05 0.05 0.05 0.03 0.02 0.02 0.02
0.06 0.04 0.04 0.05 0.06 0.06 0.04 0.04 0.04 0.06 0.10 0.13 0.11 0.12 0.12 0.11 0.11 0.09 0.09 0.09 0.08 0.07 0.05 0.05 0.05 0.07 0.06 0.08 0.10 0.12 0.10 0.07 0.08 0.07 0.05 0.05 0.06 0.06 0.05 0.04 0.03 0.03 0.03
0.05 0.04 0.04 0.05 0.05 0.03 0.03 0.03 0.05 0.07 0.08 0.09 0.09 0.08 0.12 0.15 0.14 0.10 0.09 0.11 0.11 0.09 0.08 0.09 0.09 0.09 0.09 0.09 0.09 0.10 0.11 0.10 0.08 0.07 0.06 0.07 0.07 0.06 0.06 0.06 0.05 0.06 0.05
0.04 0.04 0.03 0.03 0.04 0.04 0.03 0.04 0.04 0.05 0.05 0.06 0.07 0.08 0.09 0.12 0.11 0.10 0.10 0.10 0.08 0.07 0.08 0.10 0.11 0.12 0.13 0.13 0.13 0.13 0.12 0.10 0.08 0.06 0.07 0.07 0.07 0.06 0.06 0.05 0.06 0.06 0.06
0.06 0.07 0.05 0.04 0.05 0.08 0.07 0.06 0.06 0.06 0.06 0.07 0.08 0.08 0.08 0.07 0.07 0.07 0.08 0.09 0.08 0.07 0.07 0.08 0.08 0.08 0.10 0.10 0.10 0.11 0.11 0.09 0.07 0.06 0.06 0.05 0.05 0.04 0.04 0.05 0.05 0.06 0.07
0.05 0.06 0.07 0.07 0.06 0.07 0.06 0.06 0.07 0.07 0.06 0.06 0.08 0.09 0.08 0.06 0.06 0.07 0.07 0.07 0.08 0.09 0.08 0.08 0.08 0.07 0.06 0.06 0.07 0.08 0.07 0.06 0.06 0.07 0.05 0.04 0.04 0.03 0.04 0.05 0.06 0.07 0.07
0.03 0.03 0.04 0.06 0.06 0.06 0.06 0.06 0.06 0.05 0.05 0.06 0.06 0.05 0.04 0.05 0.05 0.06 0.08 0.08 0.07 0.07 0.07 0.06 0.05 0.04 0.03 0.03 0.03 0.03 0.03 0.04 0.05 0.05 0.04 0.04 0.05 0.05 0.05 0.06 0.07 0.08 0.09
MSLP
1008.73 1008.97 1009.18 1009.33 1009.44 1009.52 1009.61 1009.74 1009.95 1010.24 1010.61 1011.04 1011.48 1011.89 1012.25 1012.53 1012.73 1012.86 1012.96 1013.05 1013.17 1013.34 1013.56 1013.85 1014.18 1014.55 1014.93 1015.33 1015.73 1016.11 1016.48 1016.82 1017.12 1017.37 1017.55 1017.66 1017.69 1017.65 1017.57 1017.45 1017.34 1017.27 1017.24
1008.50 1008.84 1009.13 1009.36 1009.51 1009.60 1009.69 1009.80 1010.00 1010.28 1010.65 1011.09 1011.55 1011.99 1012.36 1012.64 1012.83 1012.94 1013.01 1013.08 1013.18 1013.33 1013.56 1013.86 1014.21 1014.60 1015.00 1015.40 1015.78 1016.15 1016.49 1016.81 1017.09 1017.33 1017.52 1017.65 1017.69 1017.67 1017.58 1017.45 1017.30 1017.17 1017.07
1008.06 1008.51 1008.92 1009.26 1009.50 1009.66 1009.79 1009.93 1010.14 1010.43 1010.81 1011.25 1011.71 1012.15 1012.52 1012.79 1012.96 1013.05 1013.09 1013.13 1013.21 1013.35 1013.59 1013.90 1014.27 1014.68 1015.09 1015.49 1015.86 1016.20 1016.51 1016.80 1017.06 1017.29 1017.48 1017.62 1017.70 1017.70 1017.63 1017.50 1017.33 1017.15 1016.99
1007.36 1007.91 1008.46 1008.94 1009.31 1009.59 1009.81 1010.01 1010.25 1010.57 1010.96 1011.41 1011.88 1012.31 1012.67 1012.92 1013.06 1013.12 1013.13 1013.15 1013.21 1013.36 1013.60 1013.93 1014.32 1014.74 1015.16 1015.55 1015.91 1016.22 1016.50 1016.76 1016.99 1017.21 1017.41 1017.57 1017.68 1017.72 1017.68 1017.56 1017.39 1017.19 1016.98
1006.43 1007.07 1007.75 1008.37 1008.90 1009.31 1009.64 1009.94 1010.25 1010.60 1011.02 1011.47 1011.94 1012.37 1012.71 1012.95 1013.07 1013.11 1013.11 1013.11 1013.17 1013.31 1013.56 1013.89 1014.30 1014.73 1015.15 1015.54 1015.88 1016.17 1016.42 1016.64 1016.86 1017.07 1017.28 1017.46 1017.60 1017.68 1017.68 1017.60 1017.45 1017.25 1017.02
1005.37 1006.06 1006.84 1007.60 1008.26 1008.81 1009.26 1009.66 1010.04 1010.44 1010.89 1011.36 1011.83 1012.26 1012.60 1012.84 1012.96 1013.00 1013.00 1013.00 1013.05 1013.19 1013.44 1013.77 1014.18 1014.60 1015.02 1015.40 1015.72 1015.99 1016.21 1016.41 1016.61 1016.82 1017.03 1017.24 1017.42 1017.54 1017.59 1017.56 1017.45 1017.26 1017.04
1004.32 1005.04 1005.87 1006.72 1007.49 1008.14 1008.69 1009.17 1009.62 1010.07 1010.55 1011.04 1011.53 1011.97 1012.33 1012.58 1012.72 1012.78 1012.78 1012.80 1012.85 1012.99 1013.23 1013.56 1013.94 1014.36 1014.75 1015.11 1015.41 1015.65 1015.86 1016.04 1016.23 1016.43 1016.65 1016.88 1017.09 1017.26 1017.36 1017.38 1017.32 1017.19 1017.00
1003.48 1004.17 1005.01 1005.89 1006.70 1007.41 1008.02 1008.55 1009.03 1009.52 1010.02 1010.54 1011.05 1011.52 1011.91 1012.19 1012.37 1012.47 1012.50 1012.53 1012.60 1012.74 1012.96 1013.26 1013.62 1014.00 1014.36 1014.68 1014.95 1015.17 1015.36 1015.53 1015.71 1015.91 1016.13 1016.37 1016.61 1016.82 1016.97 1017.05 1017.05 1016.98 1016.86
1003.01 1003.64 1004.43 1005.26 1006.06 1006.76 1007.36 1007.89 1008.38 1008.87 1009.38 1009.92 1010.45 1010.95 1011.39 1011.73 1011.96 1012.10 1012.18 1012.24 1012.32 1012.45 1012.65 1012.92 1013.23 1013.56 1013.88 1014.16 1014.40 1014.59 1014.76 1014.91 1015.08 1015.27 1015.49 1015.74 1015.99 1016.22 1016.41 1016.55 1016.62 1016.63 1016.59
1003.04 1003.56 1004.25 1004.98 1005.68 1006.30 1006.83 1007.31 1007.76 1008.23 1008.73 1009.27 1009.82 1010.35 1010.83 1011.22 1011.51 1011.71 1011.84 1011.93 1012.02 1012.15 1012.32 1012.55 1012.81 1013.09 1013.36 1013.60 1013.81 1013.97 1014.11 1014.25 1014.40 1014.58 1014.79 1015.03 1015.28 1015.52 1015.74 1015.92 1016.05 1016.14 1016.20
1003.60 1004.00 1004.53 1005.10 1005.64 1006.11 1006.52 1006.89 1007.27 1007.68 1008.15 1008.67 1009.23 1009.78 1010.29 1010.72 1011.06 1011.31 1011.48 1011.60 1011.71 1011.83 1011.99 1012.18 1012.40 1012.63 1012.86 1013.06 1013.23 1013.37 1013.50 1013.62 1013.75 1013.91 1014.10 1014.32 1014.55 1014.78 1015.01 1015.21 1015.39 1015.55 1015.70
1004.61 1004.86 1005.21 1005.58 1005.91 1006.20 1006.44 1006.68 1006.95 1007.29 1007.70 1008.19 1008.72 1009.27 1009.79 1010.24 1010.61 1010.88 1011.08 1011.23 1011.35 1011.48 1011.62 1011.79 1011.99 1012.19 1012.39 1012.57 1012.72 1012.85 1012.96 1013.07 1013.18 1013.32 1013.48 1013.66 1013.86 1014.07 1014.29 1014.50 1014.71 1014.92 1015.15
1005.93 1006.03 1006.18 1006.32 1006.43 1006.51 1006.57 1006.67 1006.82 1007.07 1007.41 1007.84 1008.34 1008.85 1009.35 1009.78 1010.14 1010.42 1010.63 1010.78 1010.92 1011.05 1011.19 1011.37 1011.55 1011.75 1011.95 1012.12 1012.28 1012.40 1012.51 1012.61 1012.72 1012.83 1012.96 1013.11 1013.27 1013.45 1013.63 1013.83 1014.05 1014.29 1014.57
1007.38 1007.32 1007.26 1007.18 1007.07 1006.95 1006.85 1006.81 1006.85 1007.01 1007.28 1007.65 1008.07 1008.53 1008.96 1009.35 1009.67 1009.92 1010.10 1010.25 1010.38 1010.52 1010.67 1010.86 1011.06 1011.28 1011.49 1011.69 1011.86 1012.01 1012.13 1012.24 1012.34 1012.44 1012.55 1012.66 1012.78 1012.92 1013.07 1013.25 1013.46 1013.71 1014.01
1008.75 1008.53 1008.29 1008.01 1007.72 1007.43 1007.20 1007.05 1007.01 1007.10 1007.30 1007.59 1007.94 1008.31 1008.66 1008.96 1009.20 1009.37 1009.51 1009.62 1009.74 1009.88 1010.05 1010.25 1010.49 1010.74 1010.99 1011.22 1011.43 1011.61 1011.77 1011.90 1012.01 1012.10 1012.20 1012.29 1012.39 1012.49 1012.61 1012.77 1012.96 1013.20 1013.50
1009.90 1009.55 1009.14 1008.70 1008.27 1007.87 1007.55 1007.34 1007.26 1007.31 1007.46 1007.69 1007.96 1008.23 1008.47 1008.65 1008.78 1008.86 1008.91 1008.96 1009.04 1009.16 1009.33 1009.56 1009.82 1010.11 1010.40 1010.68 1010.93 1011.16 1011.35 1011.51 1011.64 1011.76 1011.85 1011.94 1012.03 1012.12 1012.23 1012.36 1012.53 1012.76 1013.05
1010.74 1010.27 1009.74 1009.19 1008.67 1008.22 1007.88 1007.66 1007.59 1007.63 1007.76 1007.95 1008.14 1008.31 1008.43 1008.48 1008.48 1008.43 1008.38 1008.34 1008.36 1008.44 1008.59 1008.81 1009.09 1009.40 1009.72 1010.03 1010.33 1010.60 1010.83 1011.02 1011.19 1011.34 1011.46 1011.57 1011.67 1011.77 1011.88 1012.01 1012.18 1012.39 1012.67
1011.25 1010.68 1010.08 1009.47 1008.93 1008.49 1008.17 1008.00 1007.97 1008.05 1008.19 1008.36 1008.50 1008.58 1008.58 1008.51 1008.37 1008.19 1008.01 1007.87 1007.79 1007.80 1007.90 1008.09 1008.34 1008.65 1008.97 1009.30 1009.62 1009.92 1010.18 1010.41 1010.62 1010.81 1010.97 1011.12 1011.26 1011.39 1011.52 1011.67 1011.85 1012.07 1012.34
1011.47 1010.84 1010.20 1009.59 1009.07 1008.68 1008.44 1008.36 1008.41 1008.54 1008.73 1008.89 1009.01 1009.03 1008.94 1008.75 1008.48 1008.18 1007.87 1007.61 1007.43 1007.33 1007.35 1007.47 1007.66 1007.92 1008.22 1008.53 1008.84 1009.14 1009.43 1009.69 1009.94 1010.17 1010.39 1010.59 1010.77 1010.95 1011.13 1011.32 1011.53 1011.76 1012.04
1011.48 1010.82 1010.18 1009.60 1009.14 1008.83 1008.69 1008.71 1008.85 1009.07 1009.30 1009.50 1009.61 1009.59 1009.45 1009.18 1008.81 1008.39 1007.97 1007.59 1007.29 1007.08 1006.99 1007.00 1007.10 1007.28 1007.51 1007.77 1008.05 1008.34 1008.62 1008.91 1009.19 1009.46 1009.72 1009.97 1010.22 1010.46 1010.69 1010.92 1011.17 1011.44 1011.73
1011.36 1010.71 1010.10 1009.57 1009.18 1008.96 1008.92 1009.03 1009.26 1009.56 1009.85 1010.08 1010.20 1010.18 1010.01 1009.69 1009.26 1008.77 1008.26 1007.77 1007.35 1007.02 1006.81 1006.69 1006.68 1006.75 1006.89 1007.08 1007.30 1007.55 1007.83 1008.11 1008.41 1008.71 1009.02 1009.32 1009.61 1009.90 1010.19 1010.47 1010.76 1011.07 1011.40
1011.20 1010.58 1010.01 1009.54 1009.22 1009.07 1009.10 1009.28 1009.58 1009.93 1010.26 1010.53 1010.68 1010.67 1010.50 1010.17 1009.72 1009.18 1008.61 1008.05 1007.53 1007.09 1006.75 1006.52 1006.38 1006.33 1006.37 1006.47 1006.63 1006.83 1007.08 1007.36 1007.66 1007.99 1008.32 1008.65 1008.98 1009.31 1009.63 1009.95 1010.28 1010.63 1010.99
1011.05 1010.47 1009.95 1009.53 1009.25 1009.15 1009.21 1009.42 1009.74 1010.11 1010.46 1010.75 1010.91 1010.93 1010.78 1010.47 1010.03 1009.49 1008.89 1008.28 1007.70 1007.18 1006.73 1006.39 1006.14 1005.99 1005.92 1005.94 1006.04 1006.20 1006.41 1006.68 1006.98 1007.31 1007.65 1008.00 1008.34 1008.69 1009.03 1009.37 1009.73 1010.10 1010.50
1010.94 1010.41 1009.93 1009.54 1009.29 1009.19 1009.24 1009.43 1009.72 1010.06 1010.40 1010.67 1010.84 1010.87 1010.75 1010.48 1010.07 1009.55 1008.97 1008.35 1007.73 1007.16 1006.65 1006.22 1005.89 1005.65 1005.51 1005.47 1005.51 1005.63 1005.82 1006.07 1006.36 1006.68 1007.02 1007.36 1007.70 1008.04 1008.38 1008.73 1009.09 1009.49 1009.92
1010.88 1010.39 1009.95 1009.58 1009.32 1009.18 1009.18 1009.30 1009.52 1009.79 1010.06 1010.29 1010.44 1010.48 1010.38 1010.14 1009.78 1009.31 1008.76 1008.16 1007.55 1006.96 1006.42 1005.95 1005.56 1005.27 1005.09 1005.00 1005.01 1005.10 1005.28 1005.51 1005.79 1006.09 1006.40 1006.73 1007.04 1007.36 1007.69 1008.02 1008.39 1008.79 1009.25
1010.84 1010.40 1009.99 1009.62 1009.33 1009.14 1009.06 1009.07 1009.18 1009.33 1009.51 1009.67 1009.77 1009.79 1009.70 1009.49 1009.18 1008.76 1008.26 1007.70 1007.12 1006.55 1006.01 1005.52 1005.12 1004.81 1004.60 1004.50 1004.49 1004.58 1004.74 1004.96 1005.21 1005.49 1005.78 1006.07 1006.36 1006.65 1006.95 1007.27 1007.63 1008.04 1008.52
Thickness
5811 5810 5808 5804 5800 5795 5790 5786 5782 5780 5777 5772 5767 5763 5761 5761 5761 5761 5760 5758 5756 5754 5752 5751 5749 5747 5746 5744 5743 5742 5740 5739 5740 5737 5737 5740 5744 5745 5746 5747 5747 5747 5747
5810 5809 5808 5806 5802 5797 5794 5790 5786 5783 5780 5777 5773 5769 5766 5765 5764 5763 5762 5760 5757 5755 5754 5752 5750 5748 5746 5744 5743 5741 5738 5738 5738 5735 5732 5731 5735 5740 5745 5745 5745 5745 5745
5812 5811 5809 5807 5804 5800 5798 5795 5791 5787 5784 5780 5775 5771 5768 5766 5764 5763 5762 5762 5760 5758 5756 5754 5751 5749 5746 5744 5743 5741 5739 5736 5736 5737 5733 5728 5726 5732 5739 5741 5743 5743 5743
5820 5816 5813 5810 5808 5806 5804 5799 5795 5791 5787 5783 5778 5773 5768 5765 5765 5765 5764 5763 5761 5759 5757 5755 5752 5749 5746 5745 5743 5741 5740 5737 5734 5734 5735 5734 5733 5729 5730 5736 5739 5741 5741
5825 5822 5820 5817 5814 5811 5807 5802 5798 5793 5789 5785 5782 5777 5773 5770 5768 5767 5765 5763 5762 5760 5758 5756 5753 5750 5747 5746 5743 5742 5740 5739 5736 5734 5733 5732 5731 5731 5727 5727 5732 5736 5739
5830 5826 5824 5820 5815 5812 5808 5803 5798 5794 5791 5787 5784 5780 5775 5771 5768 5766 5764 5762 5761 5760 5759 5757 5754 5751 5749 5747 5745 5742 5741 5739 5737 5736 5735 5733 5731 5729 5727 5726 5727 5729 5735
5830 5827 5823 5819 5815 5812 5808 5804 5799 5795 5792 5788 5785 5782 5778 5774 5770 5767 5765 5763 5761 5760 5759 5758 5755 5752 5751 5748 5746 5743 5741 5739 5737 5736 5735 5734 5733 5732 5729 5727 5725 5726 5730
5831 5829 5827 5823 5819 5815 5810 5806 5800 5796 5793 5788 5785 5783 5780 5775 5772 5769 5767 5765 5763 5762 5762 5759 5757 5754 5752 5749 5747 5744 5742 5740 5738 5737 5735 5734 5733 5732 5730 5728 5725 5722 5723
5831 5830 5827 5824 5821 5816 5812 5808 5802 5797 5793 5789 5786 5782 5779 5776 5772 5770 5768 5766 5765 5764 5762 5760 5757 5754 5751 5749 5747 5744 5742 5740 5738 5736 5735 5733 5733 5732 5730 5729 5727 5722 5718
5826 5827 5826 5824 5821 5818 5814 5808 5802 5796 5792 5788 5785 5782 5780 5778 5775 5771 5767 5766 5765 5764 5762 5760 5757 5754 5751 5748 5746 5743 5741 5739 5737 5736 5733 5732 5731 5730 5729 5728 5726 5724 5721
5821 5821 5821 5821 5818 5814 5809 5804 5798 5793 5789 5786 5784 5781 5779 5777 5775 5771 5769 5767 5764 5762 5761 5759 5756 5753 5750 5748 5745 5743 5741 5738 5736 5734 5732 5730 5729 5728 5727 5726 5724 5722 5721
5815 5815 5815 5814 5811 5807 5803 5799 5796 5791 5788 5784 5781 5779 5777 5775 5772 5770 5767 5766 5763 5761 5759 5757 5755 5752 5749 5746 5743 5741 5739 5736 5734 5733 5730 5729 5727 5726 5725 5723 5721 5720 5720
5805 5805 5806 5805 5802 5799 5797 5794 5793 5789 5785 5781 5777 5775 5773 5771 5769 5767 5765 5763 5761 5759 5758 5755 5752 5750 5748 5746 5743 5740 5737 5735 5733 5731 5729 5727 5725 5723 5722 5720 5719 5718 5717
5795 5795 5795 5796 5794 5792 5791 5789 5786 5784 5780 5777 5774 5771 5770 5768 5767 5764 5763 5759 5757 5756 5754 5752 5750 5748 5746 5744 5742 5739 5736 5733 5731 5729 5728 5726 5724 5722 5720 5718 5716 5714 5712
5785 5785 5784 5785 5785 5784 5782 5781 5779 5777 5775 5772 5769 5768 5766 5764 5762 5760 5758 5755 5754 5752 5750 5748 5745 5743 5741 5740 5738 5735 5732 5729 5728 5726 5725 5724 5723 5722 5719 5717 5714 5711 5708
5775 5776 5776 5776 5776 5775 5774 5771 5770 5770 5768 5765 5762 5762 5760 5758 5755 5753 5751 5749 5748 5746 5744 5742 5741 5739 5739 5737 5734 5731 5728 5726 5724 5722 5722 5721 5719 5717 5716 5714 5713 5710 5706
5766 5767 5768 5768 5768 5768 5767 5764 5763 5763 5761 5760 5758 5756 5754 5751 5748 5745 5744 5743 5741 5739 5737 5736 5736 5735 5734 5733 5731 5728 5724 5722 5720 5719 5717 5717 5715 5712 5711 5709 5707 5705 5703
5758 5759 5760 5760 5760 5759 5757 5755 5755 5753 5753 5753 5751 5749 5746 5744 5743 5740 5739 5737 5735 5734 5732 5730 5730 5729 5728 5727 5725 5723 5720 5718 5717 5715 5714 5711 5709 5707 5704 5703 5700 5699 5697
5750 5751 5752 5752 5752 5751 5749 5747 5745 5745 5744 5743 5741 5740 5739 5736 5734 5733 5732 5732 5729 5726 5725 5724 5723 5723 5723 5722 5720 5717 5714 5712 5711 5709 5708 5706 5704 5702 5698 5695 5693 5692 5691
5739 5740 5741 5743 5742 5742 5741 5738 5736 5736 5735 5735 5734 5733 5732 5729 5726 5724 5724 5723 5721 5720 5720 5719 5718 5718 5717 5716 5713 5710 5708 5706 5704 5703 5701 5699 5698 5696 5692 5689 5687 5685 5684
5729 5729 5728 5728 5729 5730 5729 5727 5725 5724 5726 5726 5725 5723 5721 5720 5718 5717 5715 5714 5713 5713 5712 5712 5711 5710 5709 5707 5705 5703 5701 5699 5697 5695 5694 5692 5690 5688 5686 5682 5680 5679 5677
5717 5717 5716 5715 5716 5717 5717 5716 5713 5713 5715 5714 5713 5712 5711 5710 5710 5707 5706 5706 5705 5704 5703 5702 5700 5700 5699 5698 5697 5695 5693 5692 5689 5687 5686 5684 5681 5679 5677 5674 5672 5670 5667
5703 5703 5703 5703 5702 5703 5703 5702 5702 5702 5703 5703 5702 5702 5701 5699 5698 5698 5697 5697 5695 5693 5692 5690 5688 5688 5688 5687 5686 5684 5682 5681 5680 5679 5677 5675 5672 5669 5666 5665 5663 5660 5658
5690 5690 5691 5690 5689 5689 5689 5689 5690 5691 5690 5689 5688 5688 5687 5686 5686 5685 5686 5686 5685 5683 5680 5678 5677 5677 5677 5677 5676 5674 5672 5671 5669 5668 5666 5663 5661 5658 5656 5655 5652 5651 5648
5677 5677 5677 5676 5676 5676 5677 5678 5678 5678 5676 5676 5675 5676 5674 5673 5672 5672 5672 5673 5673 5672 5671 5669 5668 5666 5666 5666 5665 5664 5662 5661 5660 5657 5654 5653 5651 5648 5646 5644 5643 5641 5638
5664 5664 5663 5663 5663 5664 5664 5665 5665 5664 5663 5662 5662 5661 5661 5661 5660 5660 5660 5660 5660 5660 5659 5658 5658 5657 5656 5654 5654 5654 5652 5649 5647 5645 5644 5642 5640 5639 5637 5635 5632 5630 5628